Wind_Speed
55 57 60 62 65 68 69 72 73 74 74 74 74 73 71 69 67 64 62 62 59 57 56 55 52 48 45 41 37 34 31 27 20 16 17 19 21 26 34 43 55 66 77
56 58 60 62 65 68 70 72 73 73 73 74 73 72 70 68 66 63 61 60 58 56 54 53 50 46 43 40 36 33 30 26 21 16 15 17 19 23 29 37 47 58 69
56 58 60 63 65 68 70 72 73 73 73 73 72 71 69 67 65 62 59 59 58 55 53 51 48 44 42 39 35 32 28 25 21 16 14 16 17 21 26 33 41 50 60
57 59 61 63 65 68 70 72 73 72 72 72 71 70 68 66 63 61 58 57 56 54 52 50 47 43 40 38 34 31 28 24 21 17 14 14 16 19 24 31 37 45 53
58 59 61 63 66 68 70 72 72 72 71 71 70 69 67 65 62 60 57 56 55 53 51 48 46 42 39 37 34 30 27 24 21 17 14 13 15 18 23 29 35 41 47
59 60 62 64 66 68 70 71 71 70 70 70 69 68 66 64 61 59 57 56 55 53 50 47 45 41 38 36 33 30 27 24 21 17 14 13 14 17 22 28 33 38 43
60 61 62 64 66 68 70 71 70 69 69 68 68 67 65 62 59 57 55 54 54 52 50 47 44 40 37 34 32 29 26 24 21 17 14 13 13 16 21 27 32 36 41
61 62 64 65 67 68 69 69 69 68 67 66 66 65 63 61 58 56 53 53 52 51 49 46 43 40 36 33 31 28 26 23 20 17 13 12 13 16 20 25 31 35 39
62 63 64 65 67 68 68 68 67 67 66 65 65 64 62 60 57 55 52 51 50 50 48 46 44 40 35 31 29 28 25 23 20 17 14 11 11 14 19 24 29 34 37
62 63 64 65 66 67 66 66 66 65 64 63 63 62 60 58 56 54 51 50 48 47 46 45 44 40 35 30 28 26 24 22 20 17 13 10 9 12 16 22 28 32 36
63 63 63 64 64 65 64 64 64 63 62 61 61 61 59 57 55 53 50 49 47 46 45 43 42 40 35 30 26 25 24 22 20 17 13 9 8 9 14 19 25 30 33
63 63 63 63 62 62 62 62 62 60 60 59 59 59 58 56 53 51 49 48 47 45 44 42 41 39 35 30 26 24 23 22 20 18 13 9 6 7 11 17 22 26 30
62 62 62 62 61 60 60 60 59 58 57 57 57 56 55 54 52 49 48 46 46 44 43 42 40 39 36 31 27 23 22 21 20 18 14 9 5 5 9 14 19 24 27
60 60 60 59 59 59 57 57 56 56 55 55 54 54 53 52 50 48 46 45 44 43 42 41 40 39 37 33 28 25 21 20 19 17 13 9 4 3 6 11 16 20 24
58 58 57 57 56 56 54 54 53 53 52 52 52 51 50 49 48 46 44 42 42 41 41 40 39 38 37 34 29 25 22 20 18 15 12 9 5 1 4 9 14 17 22
55 56 56 55 54 53 51 50 50 50 50 50 49 49 48 47 46 44 42 41 41 40 40 39 38 37 36 34 29 24 21 19 16 13 10 8 5 2 4 8 12 16 21
54 54 54 53 52 51 48 47 47 47 47 47 47 47 46 45 44 43 41 40 39 39 38 38 37 36 35 34 30 24 20 18 15 11 8 6 4 2 4 8 12 16 21
54 52 51 50 49 48 46 44 44 44 44 44 44 44 44 44 43 41 40 39 38 38 37 37 37 36 35 34 31 25 21 17 14 10 6 4 3 2 4 8 12 16 21
52 51 49 48 48 46 43 42 41 42 42 42 42 42 42 42 41 40 38 38 37 36 36 36 36 35 34 33 32 27 21 16 13 9 4 2 2 3 5 9 13 16 22
50 49 47 47 46 44 41 39 39 40 40 40 39 39 40 40 39 38 37 36 35 35 35 35 35 35 34 33 32 29 23 16 12 8 4 0 2 4 7 9 13 16 22
49 48 46 45 43 41 39 37 37 37 38 37 37 37 37 37 37 37 36 35 34 33 33 33 34 34 33 33 32 30 24 17 11 6 3 1 4 6 8 11 14 18 23
49 47 46 44 42 39 36 35 35 35 36 35 35 35 35 35 35 35 34 34 33 32 32 32 33 33 33 32 31 30 26 19 12 6 2 3 6 8 10 12 15 19 22
49 47 44 42 39 36 34 33 33 33 33 32 32 33 33 33 34 34 33 32 32 31 31 31 32 32 33 32 32 30 27 21 13 7 3 5 9 11 12 14 16 20 24
48 45 42 39 36 34 32 31 31 31 31 30 30 30 31 31 32 32 32 31 31 30 30 30 31 32 32 32 32 30 28 23 15 7 4 7 11 13 14 16 19 21 24
44 41 38 36 33 31 29 29 28 28 28 27 28 28 29 29 30 31 31 30 30 30 30 30 30 31 32 32 32 31 29 24 16 7 3 8 13 16 18 19 20 22 24
38 36 34 32 30 28 27 26 26 26 26 25 26 26 27 28 29 29 30 29 29 30 30 30 30 31 32 32 32 31 28 24 15 7 2 8 14 19 21 21 22 23 25
Wind_Direction
326 328 330 332 334 335 336 338 339 339 340 341 342 342 342 342 341 341 341 341 340 340 340 340 340 339 338 337 334 331 328 326 319 297 278 263 248 233 223 217 214 213 212
324 326 328 330 332 334 336 337 338 339 340 341 342 342 343 343 343 342 342 342 342 341 341 342 341 340 340 339 337 333 330 327 322 306 282 265 249 234 222 216 214 213 212
322 324 326 328 331 333 335 336 338 339 340 341 342 343 344 344 344 344 343 343 343 343 343 343 344 343 342 342 340 336 333 329 324 312 289 268 250 234 221 214 212 212 212
320 322 324 326 329 332 334 335 337 338 340 341 342 344 344 345 345 344 344 344 345 345 344 344 345 345 344 344 343 340 335 330 323 313 296 272 251 233 220 213 210 211 211
318 320 322 324 327 330 333 334 336 337 339 341 342 344 345 346 345 345 345 345 346 347 346 346 346 346 346 346 345 343 340 334 326 314 299 276 253 234 219 211 209 209 210
316 318 320 322 325 328 331 333 334 336 338 340 342 344 345 346 346 346 346 346 347 348 348 347 347 347 347 346 346 345 342 337 331 318 301 278 254 235 220 211 208 207 208
314 316 318 320 323 326 329 332 333 335 337 339 342 344 345 346 346 346 346 347 348 349 349 349 348 347 346 346 346 344 342 338 333 323 305 281 256 236 220 212 209 208 208
312 314 316 318 321 324 327 330 331 333 336 338 341 343 345 346 347 347 347 348 348 349 350 350 349 348 347 347 347 346 344 341 337 329 313 289 261 239 223 213 210 208 208
309 311 313 316 319 322 325 328 330 331 334 337 340 343 345 346 347 348 348 349 349 350 350 351 352 350 348 347 348 349 348 345 341 335 322 298 267 242 224 215 211 209 207
307 309 311 314 317 320 323 326 328 330 332 336 339 342 344 346 347 348 349 349 350 351 351 352 353 353 351 349 349 350 350 348 344 338 329 308 276 247 226 216 210 208 206
306 307 310 312 315 318 321 324 326 328 331 334 337 341 344 346 347 348 349 350 351 352 352 353 353 354 353 351 351 351 352 351 348 344 334 315 285 251 226 214 208 205 204
304 306 308 310 313 316 319 321 324 326 329 332 336 340 343 346 347 348 348 349 351 352 353 354 354 355 355 355 353 352 353 352 351 348 341 324 290 252 227 213 206 203 202
303 304 306 309 311 314 317 320 321 324 327 331 335 339 342 345 347 348 348 349 351 352 353 354 355 356 358 358 357 354 353 353 352 351 348 337 307 252 224 210 204 201 200
302 303 305 308 310 312 316 318 319 321 325 329 333 338 341 345 347 347 348 349 350 352 353 354 355 357 358 359 358 357 355 354 354 354 354 350 335 263 215 202 198 196 196
303 304 305 307 309 312 314 316 317 319 323 327 332 336 341 344 346 347 347 348 350 351 353 354 355 357 358 358 356 356 356 355 355 357 1 6 7 352 194 190 190 190 190
303 304 304 306 309 311 312 314 315 318 321 325 330 335 340 343 346 347 347 348 350 352 353 354 355 357 358 358 357 355 355 355 355 357 2 9 20 64 165 177 180 182 184
303 304 304 306 308 310 311 312 313 316 320 324 329 334 339 343 346 347 347 348 349 351 353 354 355 356 358 359 358 356 355 355 355 355 0 8 26 79 156 173 175 175 179
303 303 304 305 308 309 309 310 312 314 318 322 327 332 338 342 345 346 347 348 349 350 352 354 355 356 357 358 359 357 355 354 355 356 358 10 36 98 149 166 172 176 178
303 302 302 303 306 307 308 308 310 312 315 320 325 331 337 341 344 346 347 348 348 350 352 354 355 356 357 358 358 357 355 353 354 354 354 8 86 126 150 163 170 176 178
302 301 301 302 304 305 305 306 307 310 313 318 324 330 336 340 344 346 347 347 348 349 350 353 354 355 356 357 358 358 355 351 349 351 349 268 160 154 160 167 172 174 175
301 300 299 300 301 302 302 303 305 308 311 316 322 328 335 339 343 345 346 347 347 348 349 351 353 355 355 356 357 357 355 351 345 341 336 206 177 165 163 167 171 171 172
298 298 298 298 299 300 299 300 303 306 309 314 321 327 334 339 342 345 345 346 346 347 348 350 352 354 355 355 356 356 355 351 343 327 296 205 184 172 167 167 170 173 174
294 294 294 295 296 295 295 297 300 303 307 313 319 326 332 338 342 344 345 346 346 347 347 349 350 352 354 355 355 355 355 352 344 323 260 203 185 178 172 171 172 173 173
289 290 291 291 292 291 290 293 297 301 305 311 318 325 332 337 342 344 345 345 345 346 346 348 349 351 352 353 354 354 354 353 347 327 250 203 188 182 177 174 173 173 174
286 285 286 286 286 286 286 290 294 297 302 309 317 324 331 337 342 344 345 345 345 345 346 346 348 349 351 352 353 353 353 353 351 338 241 201 190 184 180 177 175 174 175
282 281 281 280 280 280 282 286 290 294 300 308 316 323 330 337 341 344 345 345 345 345 345 345 346 348 349 351 352 353 353 354 354 350 229 194 188 185 183 181 178 177 177
Height
5692 5682 5671 5660 5648 5635 5621 5607 5591 5575 5559 5542 5526 5508 5491 5473 5456 5440 5424 5408 5393 5378 5363 5349 5335 5322 5310 5299 5289 5281 5273 5267 5263 5260 5257 5256 5256 5259 5264 5271 5281 5293 5307
5683 5673 5662 5651 5639 5626 5612 5598 5583 5567 5551 5534 5518 5501 5484 5467 5450 5434 5418 5403 5388 5374 5360 5346 5332 5319 5308 5297 5287 5279 5271 5265 5261 5258 5255 5253 5253 5256 5260 5267 5276 5287 5299
5673 5663 5653 5642 5630 5617 5603 5589 5574 5559 5543 5527 5510 5494 5477 5460 5444 5428 5413 5399 5384 5369 5356 5342 5329 5317 5306 5295 5285 5277 5270 5264 5259 5255 5253 5252 5252 5253 5257 5264 5272 5282 5293
5664 5654 5643 5632 5620 5608 5595 5581 5566 5551 5535 5519 5503 5487 5471 5454 5438 5423 5409 5394 5380 5366 5352 5339 5327 5314 5304 5294 5284 5276 5269 5262 5257 5254 5252 5250 5250 5252 5255 5261 5268 5277 5287
5654 5644 5634 5623 5611 5599 5586 5572 5558 5543 5528 5513 5497 5480 5464 5449 5434 5419 5405 5391 5377 5363 5350 5336 5324 5312 5301 5292 5283 5274 5267 5261 5256 5252 5250 5249 5248 5250 5253 5258 5265 5272 5282
5643 5634 5624 5613 5602 5590 5577 5564 5550 5536 5521 5506 5491 5475 5459 5444 5429 5414 5400 5387 5373 5360 5347 5334 5322 5311 5300 5291 5282 5274 5267 5260 5255 5251 5248 5247 5247 5248 5250 5255 5261 5268 5278
5633 5623 5613 5603 5592 5580 5569 5556 5542 5528 5514 5499 5485 5469 5454 5439 5424 5410 5396 5383 5370 5357 5344 5332 5321 5310 5299 5290 5282 5274 5267 5260 5255 5250 5247 5245 5245 5246 5248 5252 5258 5264 5272
5621 5612 5603 5593 5582 5571 5560 5548 5535 5521 5508 5494 5479 5464 5449 5435 5421 5407 5394 5380 5367 5354 5342 5331 5319 5308 5298 5290 5281 5273 5266 5260 5254 5250 5246 5244 5243 5243 5246 5249 5254 5261 5268
5609 5601 5591 5582 5572 5561 5551 5539 5527 5514 5501 5488 5474 5460 5445 5431 5417 5404 5391 5378 5365 5353 5341 5329 5318 5307 5297 5289 5281 5273 5266 5260 5254 5249 5245 5243 5241 5241 5243 5247 5251 5257 5264
5597 5589 5580 5571 5561 5552 5542 5531 5519 5507 5494 5482 5469 5455 5441 5427 5414 5401 5389 5377 5365 5353 5340 5328 5317 5306 5296 5288 5280 5273 5267 5260 5255 5249 5245 5242 5240 5240 5241 5244 5248 5253 5260
5585 5577 5568 5560 5551 5542 5532 5522 5511 5499 5488 5476 5463 5451 5437 5424 5410 5398 5386 5374 5363 5351 5339 5328 5317 5306 5296 5288 5280 5273 5267 5260 5255 5250 5245 5242 5240 5239 5240 5242 5246 5251 5257
5571 5564 5556 5548 5540 5532 5523 5513 5503 5492 5481 5469 5457 5444 5432 5419 5407 5394 5383 5371 5360 5349 5338 5328 5317 5307 5297 5287 5280 5273 5267 5261 5255 5250 5246 5242 5240 5239 5240 5242 5245 5249 5255
5558 5551 5544 5537 5529 5521 5513 5504 5495 5485 5474 5463 5452 5439 5427 5415 5403 5391 5380 5369 5358 5347 5337 5326 5316 5306 5296 5287 5280 5273 5267 5262 5256 5251 5246 5243 5241 5240 5240 5241 5244 5248 5253
5546 5539 5532 5525 5518 5511 5503 5495 5487 5477 5467 5457 5446 5435 5423 5411 5400 5388 5377 5366 5356 5345 5335 5325 5316 5306 5296 5287 5280 5273 5267 5262 5257 5252 5248 5245 5242 5241 5241 5242 5244 5247 5252
5532 5526 5520 5514 5507 5501 5494 5486 5478 5470 5461 5451 5441 5430 5418 5408 5397 5386 5376 5366 5356 5346 5335 5325 5315 5306 5297 5288 5280 5274 5268 5263 5258 5253 5250 5247 5244 5243 5243 5243 5245 5248 5252
5520 5514 5508 5502 5497 5490 5484 5477 5470 5462 5454 5445 5435 5425 5414 5404 5393 5383 5373 5364 5354 5344 5334 5325 5315 5306 5297 5289 5281 5274 5269 5264 5259 5255 5252 5249 5247 5245 5245 5246 5247 5250 5253
5507 5502 5496 5491 5485 5480 5474 5468 5462 5455 5447 5439 5430 5420 5410 5400 5390 5380 5370 5361 5352 5343 5333 5324 5315 5306 5298 5289 5281 5275 5269 5264 5260 5256 5254 5251 5249 5248 5248 5248 5250 5252 5256
5495 5489 5484 5479 5475 5470 5465 5459 5454 5447 5440 5432 5424 5415 5406 5396 5387 5377 5368 5359 5350 5341 5332 5323 5314 5306 5298 5290 5282 5275 5269 5265 5261 5257 5255 5253 5252 5251 5251 5251 5253 5255 5259
5482 5477 5473 5468 5464 5460 5455 5450 5445 5440 5433 5426 5418 5410 5401 5392 5383 5374 5365 5356 5348 5339 5331 5323 5314 5306 5298 5290 5282 5275 5269 5265 5261 5258 5256 5255 5254 5253 5254 5254 5256 5258 5261
5470 5465 5461 5457 5454 5450 5446 5441 5437 5432 5426 5419 5412 5405 5396 5388 5379 5371 5362 5354 5346 5338 5330 5322 5313 5305 5297 5290 5282 5275 5269 5265 5261 5259 5257 5256 5256 5256 5256 5258 5259 5262 5265
5458 5454 5450 5447 5443 5440 5437 5433 5429 5424 5419 5413 5406 5399 5391 5383 5375 5367 5359 5351 5344 5336 5328 5321 5313 5305 5297 5290 5282 5275 5269 5265 5261 5259 5257 5257 5257 5258 5259 5260 5263 5265 5269
5445 5442 5439 5436 5433 5430 5428 5424 5421 5417 5412 5406 5400 5394 5386 5379 5371 5364 5356 5349 5341 5334 5327 5319 5312 5304 5297 5289 5282 5275 5269 5264 5261 5258 5257 5257 5258 5259 5261 5263 5266 5269 5272
5431 5429 5426 5424 5422 5421 5418 5416 5413 5409 5405 5400 5395 5388 5382 5375 5368 5360 5353 5346 5339 5332 5325 5318 5311 5303 5296 5289 5281 5275 5268 5263 5259 5257 5257 5257 5258 5260 5262 5265 5268 5272 5276
5416 5415 5414 5413 5412 5411 5409 5407 5405 5402 5398 5394 5389 5383 5377 5370 5364 5357 5350 5343 5336 5329 5323 5316 5309 5302 5295 5287 5280 5273 5267 5261 5257 5255 5255 5256 5258 5260 5264 5267 5270 5274 5279
5401 5401 5401 5401 5401 5401 5400 5399 5397 5395 5392 5388 5383 5378 5372 5366 5360 5353 5347 5340 5333 5327 5320 5314 5307 5300 5293 5286 5279 5272 5265 5259 5255 5253 5253 5254 5257 5260 5264 5268 5272 5276 5281
5387 5388 5389 5390 5391 5391 5392 5391 5390 5388 5385 5382 5378 5373 5368 5362 5356 5350 5343 5337 5330 5324 5318 5311 5304 5298 5291 5284 5276 5269 5263 5257 5253 5251 5251 5253 5256 5260 5264 5269 5273 5278 5283